When you browse on this site, cookies collect data to enhance your experience and personalize the content and advertising you see.
Visit our Privacy Policy to learn more. By continuing to use the site, you agree to this use of cookies and data.
  • In Hungary
  • List of Countries
  • For 7 days
  • Water Temperature
  • Weather Map
  • News
  • Weather Widgets
  • user-avatar
    Login

    Hourly Weather Polozy

    Today, 21 September, Saturday

    Time Temperature Precipitation Wind Pressure Humidity
    00:00 +4°C° 0 mm 2 mps 756 mmHg 85%
    01:00 +4°C° 0 mm 2 mps 756 mmHg 89%
    02:00 +4°C° 0 mm 2 mps 756 mmHg 94%
    03:00 +3°C° 0.3 mm 3 mps 755 mmHg 93%
    04:00 +4°C° 0.3 mm 3 mps 755 mmHg 93%
    05:00 +4°C° 0.3 mm 3 mps 754 mmHg 92%
    06:00 +4°C° 0 mm 3 mps 754 mmHg 91%
    07:00 +5°C° 0 mm 4 mps 753 mmHg 89%
    08:00 +5°C° 0 mm 4 mps 753 mmHg 87%
    09:00 +5°C° 0.8 mm 4 mps 752 mmHg 90%
    10:00 +5°C° 0.8 mm 4 mps 752 mmHg 92%
    11:00 +5°C° 0.8 mm 4 mps 751 mmHg 95%
    12:00 +6°C° 0.5 mm 4 mps 751 mmHg 95%
    13:00 +8°C° 0.5 mm 3 mps 750 mmHg 95%
    14:00 +8°C° 0.5 mm 3 mps 750 mmHg 96%
    15:00 +9°C° 0.4 mm 2 mps 750 mmHg 96%
    16:00 +9°C° 0.4 mm 2 mps 749 mmHg 97%
    17:00 +10°C° 0.4 mm 2 mps 749 mmHg 98%
    18:00 +10°C° 0.7 mm 2 mps 749 mmHg 98%
    19:00 +10°C° 0.7 mm 2 mps 749 mmHg 97%
    20:00 +10°C° 0.7 mm 2 mps 748 mmHg 97%
    21:00 +10°C° 0.5 mm 3 mps 748 mmHg 97%
    22:00 +10°C° 0.5 mm 3 mps 748 mmHg 97%
    23:00 +10°C° 0.5 mm 3 mps 748 mmHg 97%

    Tomorrow, 22 September, Sunday

    Time Temperature Precipitation Wind Pressure Humidity
    00:00 +10°C° 0.3 mm 3 mps 748 mmHg 96%
    01:00 +10°C° 0.3 mm 4 mps 748 mmHg 95%
    02:00 +8°C° 0.3 mm 4 mps 748 mmHg 94%
    03:00 +8°C° 0.2 mm 4 mps 748 mmHg 94%
    04:00 +8°C° 0.2 mm 4 mps 748 mmHg 93%
    05:00 +8°C° 0.2 mm 5 mps 749 mmHg 92%
    06:00 +8°C° 0.1 mm 5 mps 749 mmHg 91%
    07:00 +8°C° 0.1 mm 5 mps 749 mmHg 89%
    08:00 +7°C° 0.1 mm 5 mps 749 mmHg 88%
    09:00 +7°C° 0.2 mm 5 mps 750 mmHg 85%
    10:00 +7°C° 0.2 mm 5 mps 750 mmHg 82%
    11:00 +7°C° 0.2 mm 5 mps 751 mmHg 79%
    12:00 +7°C° 0.2 mm 5 mps 752 mmHg 75%
    13:00 +8°C° 0.2 mm 6 mps 752 mmHg 72%
    14:00 +8°C° 0.2 mm 6 mps 753 mmHg 68%
    15:00 +7°C° 0.1 mm 5 mps 753 mmHg 70%
    16:00 +7°C° 0.1 mm 5 mps 754 mmHg 72%
    17:00 +6°C° 0.1 mm 4 mps 754 mmHg 75%
    18:00 +5°C° 0 mm 4 mps 755 mmHg 78%
    19:00 +4°C° 0 mm 3 mps 756 mmHg 81%
    20:00 +3°C° 0 mm 3 mps 756 mmHg 84%
    21:00 +3°C° 0 mm 2 mps 757 mmHg 86%
    22:00 +2°C° 0 mm 2 mps 757 mmHg 88%
    23:00 +2°C° 0 mm 2 mps 758 mmHg 90%

    Day after tomorrow, 23 September, Monday

    Time Temperature Precipitation Wind Pressure Humidity
    00:00 +2°C° 0 mm 2 mps 758 mmHg 91%
    01:00 +1°C° 0 mm 2 mps 758 mmHg 92%
    02:00 +2°C° 0 mm 1 mps 759 mmHg 93%
    03:00 +2°C° 0 mm 1 mps 759 mmHg 93%
    04:00 +2°C° 0 mm 1 mps 759 mmHg 93%
    05:00 +2°C° 0 mm 1 mps 759 mmHg 94%
    06:00 +3°C° 0 mm 1 mps 760 mmHg 89%
    07:00 +4°C° 0 mm 1 mps 760 mmHg 84%
    08:00 +5°C° 0 mm 1 mps 760 mmHg 79%
    09:00 +6°C° 0 mm 1 mps 760 mmHg 73%
    10:00 +6°C° 0 mm 2 mps 760 mmHg 67%
    11:00 +8°C° 0 mm 2 mps 760 mmHg 61%
    12:00 +8°C° 0 mm 2 mps 760 mmHg 60%
    13:00 +8°C° 0 mm 2 mps 759 mmHg 58%
    14:00 +9°C° 0 mm 2 mps 759 mmHg 57%
    15:00 +8°C° 0 mm 2 mps 759 mmHg 61%
    16:00 +8°C° 0 mm 2 mps 759 mmHg 65%
    17:00 +7°C° 0 mm 2 mps 759 mmHg 69%
    18:00 +7°C° 0 mm 1 mps 759 mmHg 72%
    19:00 +6°C° 0 mm 1 mps 759 mmHg 74%
    20:00 +5°C° 0 mm 1 mps 759 mmHg 77%
    21:00 +5°C° 0 mm 1 mps 759 mmHg 78%
    22:00 +4°C° 0 mm 1 mps 759 mmHg 79%
    23:00 +4°C° 0 mm 1 mps 759 mmHg 80%

    24 September, Tuesday

    Time Temperature Precipitation Wind Pressure Humidity
    00:00 +3°C° 0 mm 1 mps 759 mmHg 82%
    01:00 +3°C° 0 mm 1 mps 759 mmHg 85%
    02:00 +1°C° 0 mm 0 mps 759 mmHg 88%
    03:00 +1°C° 0 mm 0 mps 759 mmHg 89%
    04:00 0°C° 0 mm 0 mps 759 mmHg 90%
    05:00 0°C° 0 mm 0 mps 759 mmHg 91%
    06:00 +1°C° 0 mm 0 mps 759 mmHg 86%
    07:00 +3°C° 0 mm 0 mps 759 mmHg 81%
    08:00 +4°C° 0 mm 0 mps 758 mmHg 76%
    09:00 +6°C° 0 mm 0 mps 758 mmHg 69%
    10:00 +8°C° 0 mm 1 mps 758 mmHg 62%
    11:00 +10°C° 0 mm 1 mps 758 mmHg 55%
    12:00 +10°C° 0 mm 1 mps 758 mmHg 54%
    13:00 +9°C° 0 mm 0 mps 758 mmHg 52%
    14:00 +10°C° 0 mm 0 mps 758 mmHg 51%
    15:00 +9°C° 0 mm 0 mps 757 mmHg 56%
    16:00 +8°C° 0 mm 0 mps 757 mmHg 61%
    17:00 +7°C° 0 mm 0 mps 757 mmHg 66%
    18:00 +6°C° 0 mm 0 mps 757 mmHg 70%
    19:00 +5°C° 0 mm 0 mps 757 mmHg 73%
    20:00 +4°C° 0 mm 0 mps 757 mmHg 76%
    21:00 +4°C° 0 mm 0 mps 757 mmHg 78%
    22:00 +3°C° 0 mm 0 mps 757 mmHg 79%
    23:00 +3°C° 0 mm 0 mps 757 mmHg 80%

    25 September, Wednesday

    Time Temperature Precipitation Wind Pressure Humidity
    00:00 +2°C° 0 mm 0 mps 757 mmHg 81%
    01:00 +2°C° 0 mm 0 mps 757 mmHg 83%
    02:00 +1°C° 0 mm 0 mps 757 mmHg 84%
    03:00 +1°C° 0 mm 0 mps 757 mmHg 86%
    04:00 +1°C° 0 mm 0 mps 757 mmHg 87%
    05:00 0°C° 0 mm 0 mps 757 mmHg 89%
    06:00 +2°C° 0 mm 0 mps 757 mmHg 84%
    07:00 +3°C° 0 mm 0 mps 757 mmHg 80%
    08:00 +4°C° 0 mm 0 mps 757 mmHg 76%
    09:00 +6°C° 0 mm 0 mps 757 mmHg 70%
    10:00 +7°C° 0 mm 0 mps 757 mmHg 65%
    11:00 +9°C° 0 mm 0 mps 757 mmHg 59%
    12:00 +9°C° 0.1 mm 0 mps 757 mmHg 57%
    13:00 +10°C° 0.1 mm 1 mps 757 mmHg 55%
    14:00 +10°C° 0.1 mm 1 mps 757 mmHg 53%
    15:00 +10°C° 0 mm 1 mps 757 mmHg 58%
    16:00 +9°C° 0 mm 1 mps 757 mmHg 63%
    17:00 +8°C° 0 mm 1 mps 757 mmHg 68%
    18:00 +7°C° 0 mm 1 mps 757 mmHg 73%
    19:00 +5°C° 0 mm 1 mps 757 mmHg 78%
    20:00 +4°C° 0 mm 1 mps 757 mmHg 83%
    21:00 +3°C° 0 mm 1 mps 758 mmHg 85%
    22:00 +2°C° 0 mm 2 mps 758 mmHg 87%
    23:00 +1°C° 0 mm 2 mps 758 mmHg 89%

    26 September, Thursday

    Time Temperature Precipitation Wind Pressure Humidity
    00:00 +1°C° 0 mm 2 mps 758 mmHg 89%
    01:00 +2°C° 0 mm 1 mps 758 mmHg 89%
    02:00 +1°C° 0 mm 1 mps 758 mmHg 89%
    03:00 +1°C° 0 mm 1 mps 758 mmHg 89%
    04:00 +1°C° 0 mm 1 mps 758 mmHg 89%
    05:00 0°C° 0 mm 1 mps 758 mmHg 89%
    06:00 +1°C° 0 mm 2 mps 759 mmHg 83%
    07:00 +2°C° 0 mm 2 mps 759 mmHg 78%
    08:00 +3°C° 0 mm 2 mps 759 mmHg 73%
    09:00 +4°C° 0 mm 2 mps 759 mmHg 67%
    10:00 +6°C° 0 mm 2 mps 759 mmHg 60%
    11:00 +8°C° 0 mm 3 mps 759 mmHg 54%
    12:00 +8°C° 0 mm 3 mps 759 mmHg 53%
    13:00 +8°C° 0 mm 2 mps 758 mmHg 53%
    14:00 +9°C° 0 mm 2 mps 758 mmHg 52%
    15:00 +8°C° 0 mm 2 mps 758 mmHg 57%
    16:00 +7°C° 0 mm 2 mps 758 mmHg 63%
    17:00 +7°C° 0 mm 2 mps 758 mmHg 68%
    18:00 +5°C° 0 mm 2 mps 758 mmHg 73%
    19:00 +4°C° 0 mm 2 mps 758 mmHg 78%
    20:00 +2°C° 0 mm 2 mps 758 mmHg 82%
    21:00 +2°C° 0 mm 2 mps 759 mmHg 84%
    22:00 +1°C° 0 mm 2 mps 759 mmHg 85%
    23:00 +1°C° 0 mm 2 mps 759 mmHg 87%
    Show more